THOR AGENA D R/B, 815

Orbit data source: Space-Track

THOR AGENA D R/B, 815 is space debris in SSO originally from a launch on Thu, 18 Jun 1964 UTC launched from the Air Force Western Test Range (AFWTR). Debris objects in space refer to the collection of defunct objects orbiting the Earth. Examples of debris include non-operational satellites, rocket bodies, and fragments generated from explosions, collisions, or faulty payload assembly.

Loading next visibility...
Identifier
815, 1964-031C
Orbit
SSO
Last TLE update
7 hours ago
Origin
Manufacturer
LMSC
Mission
Spacecraft
Bus & Motor
AGENA D, Unknown motor
Mass
600 kg wet, 600 kg dry
Launch date (UTC)
1964-06-18 (61 years ago)
Launch vehicle
Unknown
Launch site
Air Force Western Test Range (AFWTR)
Object type
Payload
Rocket body
Debris
Shape & HBR
Cyl + 1 Nozzle, 6.3 m
Radar Cross Section
8.306 m², Large (>1 m²)

Expand to show TLE details & history

TLE from 7 hours ago
0 THOR AGENA D R/B
1 00815U 64031C   25183.58778812  .00000084  00000-0  55548-4 0  9996
2 00815  99.8085  85.9823 0011214 200.6456 159.4270 14.28309211171099
Epoch: 2025-07-02T14:06Z
TLE epoch observation values (Epoch: 2025-07-02T14:06:24.893Z)
Latitude
0.00001°
Longitude
-46.48816°
Altitude
807.812 km
Speed
7.446 km/s
True Right ascension
05h 43m 55s
True Declination
0° 00' 00"
Sunlit
Object was in daylight at epoch
Visualization orbit readout
Latitude
63.09396°
Longitude
-65.96797°
Altitude
813.858 km
Speed
7.449 km/s
Apparent Right ascension
23h 31m 08s
Apparent Declination
26° 21' 24"
Sunlit
Object is in daylight
Visualization observer readout
Local Sidereal Time
08:52:11
Azimuth
323.801° NNW
Elevation
-14.101°
Doppler factor
1
Orbital elements
Apogee altitude
802.635 km
Perigee altitude
786.548 km
Semi-major axis
7,172.729 km
Eccentricity
0.00112
Inclination
99.8085°
RAAN
85.9823°
Arg. of periapsis
200.6456°
True anomaly
Unknown
Mean anomaly
159.427°
Eccentric anomaly
Unknown
Mean motion
3.57286 °/min
Orbital period
100.76 mins
BSTAR
0.000055548
Loading maneuver chart data...
Loading SW <> Apogee altitude chart data...
Loading historical data...
Loading historical data...
Loading historical data...
Loading historical data...
Loading historical data...
Loading historical data...
Loading historical data...
Other satellites on launch #31 in the year 1964 (1964-06-18 UTC)

THOR AGENA D R/B Visibility forecast

Observer location: undefined°, undefined°

Span
Click to sort rows by Start time (UTC) header in descending order
Start Az.
Max El. time (UTC)
Max El. Az.
Max El.
End time (UTC)
End Az.
9 mins2025-07-03 05:49:02.999Z32.054° NE2025-07-03 05:54:02.999Z105.605° ESE31.055°2025-07-03 05:58:02.999Z163.862° S
7 mins2025-07-03 07:30:02.999Z341.609° N2025-07-03 07:33:02.999Z296.6° NW24.177°2025-07-03 07:37:02.999Z241.958° WSW
9 mins2025-07-03 17:08:02.999Z149.35° SSE2025-07-03 17:12:02.999Z70.43° E42.044°2025-07-03 17:17:02.999Z351.707° N
4 mins2025-07-03 18:50:02.999Z243.883° WSW2025-07-03 18:52:02.999Z269.005° W14.569°2025-07-03 18:54:02.999Z293.563° NW
|